sat.trackr.live / text

‹ back to catalog

SPACEMOBILE-002

NORAD 61048 · 2024-163D

PAYLOAD ACTIVE UNKNOWN

§ Identity

Operator
Country
US
Launch date
2024-09-12
Launch site
AFETR
Launch vehicle
Mass (kg)
RCS (m²)

External: N2YO · Heavens-Above · Gunter

§ Orbital elements

Epoch: 2026-09-22T07:47:47.322528Z

Period
94.71 min
Inclination
52.9755°
Eccentricity
0.0007318
Mean motion
15.20406491 rev/d
Perigee alt
499.6 km
Apogee alt
509.7 km
Semi-major
6,882.8 km
B*
5.9995e-4
RAAN
222.5793°
Arg perigee
52.8355°
Mean anomaly
307.3306°
Rev number
11,254

§ Raw data

SPACEMOBILE-0021 61048U 24163D   26265.32485327  .00012946  00000+0  59995-3 0  99912 61048  52.9755 222.5793 0007318  52.8355 307.3306 15.20406491112548

JSON: /api/v1/satellites/61048 · /tle

For live sub-satellite position, see the globe view (requires WebGL).

§ Visibility from observer

Set your observer location to see the next 7 days of passes ≥ 10°. The values pass through the URL so the page stays shareable.

No JS? Fill the form by hand. The geolocation button needs JavaScript.

§ Radio — SatNOGS DB

ModeDescriptionDownlinkUplink
GFSK Mode U - Transmitter 435.900 MHz
BPSK S-band telemetry 2.235 GHz

2 transmitters · refreshed weekly from db.satnogs.org